| time (UTC) | temp F | wind direction | speed MPH | gust MPH | rain 1hr in | rain 24hr in | rain mn in | humidity % | barometer mb |
| 20260508101509 | 56 | 171 | 1.0 | 4.0 | 0.00 | 0.00 | 0.00 | 83 | 1014.2 |
| 20260508100016 | 57 | 117 | 0.0 | 4.0 | 0.00 | 0.00 | 0.00 | 83 | 1013.8 |
| 20260508094517 | 57 | 154 | 0.0 | 0.0 | 0.00 | 0.00 | 0.00 | 83 | 1014.2 |
| 20260508093023 | 57 | 154 | 0.0 | 0.0 | 0.00 | 0.00 | 0.00 | 83 | 1014.5 |
| 20260508091525 | 58 | 154 | 0.0 | 0.0 | 0.00 | 0.00 | 0.00 | 83 | 1014.4 |
| 20260508090019 | 58 | 154 | 0.0 | 0.0 | 0.00 | 0.00 | 0.00 | 84 | 1014.2 |
| 20260508084514 | 58 | 154 | 0.0 | 0.0 | 0.00 | 0.00 | 0.00 | 83 | 1014.5 |
| 20260508083020 | 58 | 154 | 0.0 | 0.0 | 0.00 | 0.00 | 0.00 | 84 | 1014.6 |
| 20260508081524 | 58 | 154 | 0.0 | 0.0 | 0.00 | 0.00 | 0.00 | 84 | 1015.1 |
| 20260508080028 | 58 | 154 | 0.0 | 0.0 | 0.00 | 0.00 | 0.00 | 85 | 1015.6 |
| 20260508074520 | 57 | 154 | 0.0 | 0.0 | 0.00 | 0.00 | 0.00 | 84 | 1015.4 |
| 20260508073020 | 56 | 154 | 0.0 | 0.0 | 0.00 | 0.00 | 0.00 | 83 | 1015.1 |
| 20260508071521 | 56 | 154 | 0.0 | 0.0 | 0.00 | 0.00 | 0.00 | 82 | 1014.8 |
| 20260508070027 | 56 | 154 | 0.0 | 0.0 | 0.00 | 0.00 | 0.00 | 82 | 1014.9 |
| 20260508064510 | 55 | 154 | 0.0 | 0.0 | 0.00 | 0.00 | 0.00 | 81 | 1015.3 |
| 20260508063013 | 56 | 154 | 0.0 | 0.0 | 0.00 | 0.00 | 0.00 | 81 | 1015.6 |
| 20260508061521 | 56 | 154 | 0.0 | 0.0 | 0.00 | 0.00 | 0.00 | 81 | 1015.7 |
| 20260508060024 | 56 | 154 | 0.0 | 0.0 | 0.00 | 0.00 | 0.00 | 80 | 1015.8 |
| 20260508054534 | 57 | 154 | 0.0 | 0.0 | 0.00 | 0.00 | 0.00 | 80 | 1015.8 |
| 20260508053013 | 57 | 154 | 0.0 | 0.0 | 0.00 | 0.00 | 0.00 | 80 | 1015.8 |
| 20260508051516 | 57 | 154 | 0.0 | 0.0 | 0.00 | 0.00 | 0.00 | 80 | 1015.9 |
| 20260508050023 | 57 | 154 | 0.0 | 0.0 | 0.00 | 0.00 | 0.00 | 79 | 1015.7 |
| 20260508044526 | 58 | 154 | 0.0 | 0.0 | 0.00 | 0.00 | 0.00 | 79 | 1016.0 |
| 20260508043027 | 58 | 154 | 0.0 | 0.0 | 0.00 | 0.00 | 0.00 | 79 | 1015.9 |
| 20260508041510 | 59 | 154 | 0.0 | 0.0 | 0.00 | 0.00 | 0.00 | 79 | 1015.9 |
| 20260508040017 | 59 | 154 | 0.0 | 0.0 | 0.00 | 0.00 | 0.00 | 78 | 1015.9 |
| 20260508034536 | 60 | 154 | 0.0 | 0.0 | 0.00 | 0.00 | 0.00 | 79 | 1015.7 |
| 20260508033025 | 60 | 154 | 0.0 | 0.0 | 0.00 | 0.00 | 0.00 | 78 | 1015.4 |
| 20260508031534 | 60 | 154 | 0.0 | 0.0 | 0.00 | 0.00 | 0.00 | 78 | 1015.3 |
| 20260508030027 | 60 | 154 | 0.0 | 0.0 | 0.00 | 0.00 | 0.00 | 78 | 1015.1 |
| 20260508024540 | 60 | 154 | 0.0 | 0.0 | 0.00 | 0.00 | 0.00 | 78 | 1014.9 |
| 20260508023023 | 60 | 154 | 0.0 | 0.0 | 0.00 | 0.00 | 0.00 | 78 | 1015.3 |
| 20260508021526 | 61 | 154 | 0.0 | 0.0 | 0.00 | 0.00 | 0.00 | 79 | 1015.4 |
| 20260508020027 | 61 | 154 | 0.0 | 0.0 | 0.00 | 0.00 | 0.00 | 78 | 1015.4 |
| 20260508014535 | 62 | 154 | 0.0 | 0.0 | 0.00 | 0.00 | 0.00 | 78 | 1014.9 |
| 20260508013022 | 63 | 154 | 0.0 | 0.0 | 0.00 | 0.00 | 0.00 | 78 | 1015.0 |
| 20260508011529 | 63 | 154 | 0.0 | 0.0 | 0.00 | 0.00 | 0.00 | 76 | 1014.9 |
| 20260508010030 | 64 | 154 | 0.0 | 0.0 | 0.00 | 0.00 | 0.00 | 76 | 1015.2 |
| 20260508004524 | 65 | 154 | 0.0 | 1.0 | 0.00 | 0.00 | 0.00 | 73 | 1015.1 |
| 20260508003018 | 65 | 155 | 0.0 | 1.0 | 0.00 | 0.00 | 0.00 | 74 | 1015.0 |
| 20260508001531 | 66 | 155 | 0.0 | 0.0 | 0.00 | 0.01 | 0.00 | 72 | 1015.1 |
| 20260508000006 | 66 | 175 | 0.0 | 3.0 | 0.00 | 0.01 | 0.00 | 71 | 1015.5 |
| 20260507234509 | 67 | 142 | 0.0 | 0.0 | 0.00 | 0.01 | 0.00 | 69 | 1015.6 |
| 20260507233017 | 67 | 142 | 0.0 | 0.0 | 0.00 | 0.01 | 0.00 | 68 | 1015.2 |
| 20260507231518 | 67 | 142 | 0.0 | 0.0 | 0.00 | 0.01 | 0.00 | 65 | 1015.2 |
| 20260507230024 | 68 | 142 | 0.0 | 0.0 | 0.00 | 0.01 | 0.00 | 65 | 1015.7 |
| 20260507224525 | 68 | 142 | 0.0 | 0.0 | 0.00 | 0.01 | 0.00 | 64 | 1015.6 |
| 20260507223013 | 68 | 142 | 0.0 | 0.0 | 0.00 | 0.01 | 0.00 | 64 | 1015.9 |
| 20260507221516 | 67 | 125 | 0.0 | 3.0 | 0.00 | 0.01 | 0.00 | 63 | 1016.0 |
| 20260507220021 | 68 | 87 | 1.0 | 3.0 | 0.00 | 0.01 | 0.00 | 62 | 1015.7 |
| 20260507214524 | 68 | 74 | 2.0 | 4.0 | 0.00 | 0.01 | 0.00 | 66 | 1016.0 |
| 20260507213030 | 67 | 105 | 1.0 | 4.0 | 0.00 | 0.01 | 0.00 | 62 | 1016.1 |
| 20260507211512 | 67 | 78 | 1.0 | 5.0 | 0.00 | 0.01 | 0.00 | 62 | 1016.4 |
| 20260507210019 | 67 | 94 | 2.0 | 4.0 | 0.00 | 0.01 | 0.00 | 62 | 1016.8 |
| 20260507204521 | 67 | 100 | 0.0 | 6.0 | 0.00 | 0.01 | 0.00 | 63 | 1016.7 |
| 20260507203039 | 68 | 69 | 3.0 | 8.0 | 0.00 | 0.01 | 0.00 | 62 | 1016.4 |
| 20260507201531 | 68 | 89 | 1.0 | 7.0 | 0.00 | 0.01 | 0.00 | 62 | 1016.5 |
| 20260507200016 | 68 | 47 | 5.0 | 9.0 | 0.00 | 0.01 | 0.00 | 61 | 1016.6 |
| 20260507194526 | 68 | 20 | 3.0 | 6.0 | 0.00 | 0.01 | 0.00 | 61 | 1016.7 |
| 20260507193022 | 68 | 35 | 2.0 | 7.0 | 0.00 | 0.01 | 0.00 | 61 | 1017.3 |
| 20260507191535 | 68 | 17 | 3.0 | 7.0 | 0.00 | 0.01 | 0.00 | 61 | 1017.7 |
| 20260507190031 | 67 | 57 | 2.0 | 7.0 | 0.00 | 0.01 | 0.00 | 61 | 1018.0 |
| 20260507184521 | 68 | 40 | 4.0 | 10.0 | 0.00 | 0.01 | 0.00 | 60 | 1017.9 |
| 20260507183022 | 67 | 44 | 1.0 | 11.0 | 0.00 | 0.01 | 0.00 | 63 | 1017.6 |
| 20260507181523 | 68 | 346 | 6.0 | 10.0 | 0.00 | 0.01 | 0.00 | 60 | 1017.6 |
| 20260507180028 | 68 | 5 | 9.0 | 12.0 | 0.00 | 0.01 | 0.00 | 61 | 1017.7 |
| 20260507174539 | 68 | 352 | 6.0 | 12.0 | 0.00 | 0.01 | 0.00 | 61 | 1017.8 |
| 20260507173045 | 67 | 5 | 7.0 | 13.0 | 0.00 | 0.01 | 0.00 | 62 | 1018.3 |
| 20260507171526 | 67 | 32 | 4.0 | 15.0 | 0.00 | 0.01 | 0.00 | 63 | 1018.5 |
| 20260507170029 | 67 | 360 | 7.0 | 16.0 | 0.00 | 0.01 | 0.00 | 66 | 1018.6 |
| 20260507164533 | 65 | 49 | 2.0 | 10.0 | 0.00 | 0.01 | 0.00 | 69 | 1019.1 |
| 20260507163032 | 65 | 97 | 3.0 | 12.0 | 0.00 | 0.01 | 0.00 | 68 | 1019.4 |
| 20260507161519 | 64 | 24 | 6.0 | 15.0 | 0.00 | 0.01 | 0.00 | 69 | 1019.3 |
| 20260507160026 | 64 | 42 | 5.0 | 10.0 | 0.00 | 0.01 | 0.00 | 71 | 1019.3 |
| 20260507154506 | 63 | 40 | 5.0 | 9.0 | 0.00 | 0.01 | 0.00 | 71 | 1019.2 |
| 20260507153013 | 62 | 37 | 7.0 | 11.0 | 0.00 | 0.01 | 0.00 | 71 | 1019.3 |
| 20260507151518 | 62 | 350 | 6.0 | 11.0 | 0.00 | 0.01 | 0.00 | 71 | 1019.5 |
| 20260507150034 | 60 | 53 | 3.0 | 11.0 | 0.00 | 0.01 | 0.00 | 72 | 1019.8 |
| 20260507144524 | 59 | 360 | 1.0 | 7.0 | 0.00 | 0.01 | 0.00 | 74 | 1020.0 |
| 20260507143012 | 59 | 16 | 1.0 | 6.0 | 0.00 | 0.01 | 0.00 | 75 | 1019.9 |
| 20260507141516 | 58 | 9 | 2.0 | 10.0 | 0.00 | 0.01 | 0.00 | 74 | 1020.0 |
| 20260507140020 | 57 | 5 | 2.0 | 7.0 | 0.00 | 0.01 | 0.00 | 76 | 1019.7 |
| 20260507134524 | 56 | 347 | 2.0 | 6.0 | 0.00 | 0.01 | 0.00 | 76 | 1019.8 |
| 20260507133042 | 55 | 351 | 1.0 | 5.0 | 0.00 | 0.01 | 0.00 | 77 | 1020.1 |
| 20260507131516 | 55 | 330 | 0.0 | 3.0 | 0.00 | 0.01 | 0.00 | 81 | 1020.4 |
| 20260507130016 | 53 | 322 | 0.0 | 2.0 | 0.00 | 0.01 | 0.00 | 83 | 1020.3 |
| 20260507124527 | 52 | 307 | 0.0 | 0.0 | 0.00 | 0.01 | 0.00 | 83 | 1020.1 |
| 20260507123034 | 52 | 307 | 0.0 | 0.0 | 0.00 | 0.01 | 0.00 | 84 | 1020.0 |
| 20260507121527 | 51 | 307 | 0.0 | 0.0 | 0.00 | 0.01 | 0.00 | 83 | 1020.4 |
| 20260507120018 | 51 | 307 | 0.0 | 1.0 | 0.00 | 0.01 | 0.00 | 83 | 1020.4 |
| 20260507114522 | 51 | 298 | 0.0 | 1.0 | 0.00 | 0.01 | 0.00 | 83 | 1020.2 |
| 20260507113027 | 51 | 304 | 0.0 | 3.0 | 0.00 | 0.01 | 0.00 | 83 | 1019.8 |
| 20260507111527 | 51 | 318 | 0.0 | 2.0 | 0.00 | 0.01 | 0.00 | 83 | 1019.4 |
| 20260507110036 | 51 | 325 | 0.0 | 2.0 | 0.00 | 0.01 | 0.00 | 82 | 1019.1 |
| 20260507104529 | 51 | 321 | 0.0 | 1.0 | 0.00 | 0.01 | 0.00 | 82 | 1018.9 |
| 20260507103031 | 52 | 320 | 0.0 | 1.0 | 0.00 | 0.01 | 0.00 | 81 | 1018.6 |